sat.trackr.live / text

‹ back to catalog

STARLINK-11265 [DTC]

NORAD 60909 · 2024-154G

PAYLOAD ACTIVE UNKNOWN

§ Identity

Operator
Country
US
Launch date
2024-08-31
Launch site
AFETR
Launch vehicle
Mass (kg)
RCS (m²)

Purposes: comms

External: N2YO · Heavens-Above · Gunter

§ Orbital elements

Epoch: 2026-05-25T04:24:13.670784Z

Period
91.74 min
Inclination
53.1603°
Eccentricity
0.0001271
Mean motion
15.69700379 rev/d
Perigee alt
358.9 km
Apogee alt
360.6 km
Semi-major
6,737.9 km
B*
7.2318e-6
RAAN
114.5404°
Arg perigee
97.1501°
Mean anomaly
262.9661°
Rev number
10,052

§ Raw data

STARLINK-11265 [DTC]1 60909U 24154G   26145.18349156  .00000287  00000+0  72318-5 0  99972 60909  53.1603 114.5404 0001271  97.1501 262.9661 15.69700379100524

JSON: /api/v1/satellites/60909 · /tle

For live sub-satellite position, see the globe view (requires WebGL).

§ Visibility from observer

Set your observer location to see the next 7 days of passes ≥ 10°. The values pass through the URL so the page stays shareable.

No JS? Fill the form by hand. The geolocation button needs JavaScript.